Location: Bush Observatory
(40.2653°N, 94.3194°W)
Time: 20:16:25
(UTC-06:00)

JAS-2 - Visible Passes

Search period start: 18 December 2014 00:00
Search period end: 28 December 2014 00:00
Orbit: 800 x 1322 km, 98.5° (Epoch: 17 December)

Date Brightness Start Highest point End Pass type
(mag) Time Alt. Az. Time Alt. Az. Time Alt. Az.
18 Dec 11.3 04:33:00 10° NE 04:37:33 24° E 04:41:49 10° SE visible
18 Dec 9.6 06:17:32 10° N 06:22:54 40° WNW 06:27:49 10° SW visible
18 Dec 12.5 18:13:42 10° SW 18:19:03 20° W 18:24:12 10° NW visible
19 Dec 9.5 05:22:18 10° NNE 05:28:00 69° ESE 05:33:13 10° S visible
19 Dec 11.2 17:16:18 10° S 17:23:44 49° W 17:30:37 10° NNW visible
20 Dec 11.4 04:28:17 10° NE 04:32:33 22° E 04:36:34 10° SE visible
20 Dec 9.5 06:12:37 10° N 06:17:58 43° WNW 06:22:53 10° SW visible
20 Dec 12.5 18:08:41 10° SW 18:14:11 21° W 18:19:26 10° NW visible
21 Dec 9.6 05:17:27 10° NNE 05:23:01 63° E 05:28:10 10° S visible
21 Dec 10.6 07:04:03 10° NNW 07:07:27 17° WNW 07:10:42 10° W visible
22 Dec 11.5 04:23:34 10° NE 04:27:32 20° E 04:31:19 10° SE visible
22 Dec 9.4 06:07:42 10° N 06:13:01 46° WNW 06:17:58 10° SW visible
22 Dec 12.4 18:03:41 10° SW 18:09:19 22° W 18:14:39 10° NW visible
23 Dec 9.7 05:12:35 10° NNE 05:18:02 58° E 05:23:07 10° S visible
23 Dec 10.5 06:59:01 10° NNW 07:02:33 18° WNW 07:05:57 10° W visible
24 Dec 11.6 04:18:52 10° NE 04:22:31 18° E 04:26:02 10° SE visible
24 Dec 9.3 06:02:46 10° N 06:08:04 50° WNW 06:13:02 10° SW visible
24 Dec 12.4 17:58:42 10° SW 18:04:27 24° W 18:09:51 10° NW visible
25 Dec 9.8 05:07:43 10° NNE 05:13:02 53° E 05:18:03 10° S visible
25 Dec 10.4 06:53:59 10° NNW 06:57:39 19° WNW 07:01:11 10° WSW visible
26 Dec 11.7 04:14:11 10° NE 04:17:30 16° E 04:20:43 10° SE visible
26 Dec 9.2 05:57:49 10° N 06:03:06 54° WNW 06:08:06 10° SSW visible
26 Dec 12.3 17:53:45 10° SW 17:59:35 25° W 18:05:01 10° NW visible
27 Dec 10.0 05:02:50 10° NNE 05:08:02 48° E 05:13:00 10° S visible
27 Dec 10.3 06:48:56 10° NNW 06:52:44 20° WNW 06:56:24 10° WSW visible
